Location: La Bastide
(43.1661°N, 1.2755°E)
Time: 02:08:42
(UTC+00:00)

Cosmos 2151 - Pass Details

Date: 13 December 2025
Orbit: 560 x 575 km, 82.5° (Epoch: 12 January)

Event Time Altitude Azimuth Distance (km) Brightness Sun altitude
Rises 17:05:46 0° 349° (N) 2,790 6.3 -8.2°
Reaches altitude 10° 17:07:58 10° 347° (NNW) 1,889 5.4 -8.6°
Maximum altitude 17:12:07 70° 264° (W) 616 3.3 -9.3°
Drops below altitude 10° 17:16:14 10° 181° (S) 1,879 5.9 -10.0°
Sets 17:18:25 0° 179° (S) 2,773 6.7 -10.3°
